Regional Weather Roundup
Issued by NWS Goodland, KS

Home | Current Version | Previous Version | Graphics & Text | Print | Product List | Glossary On
Versions: 1 2 3 4 5 6 7 8 9 10 11 12 13 14 15 16 17 18 19 20 21 22 23 24 25 26 27 28 29 30 31 32 33 34 35 36 37 38 39 40 41 42 43 44 45 46 47 48 49 50
000
ASUS43 KGLD 171459
RWRGLD

GOODLAND FORECAST AREA HOURLY WEATHER ROUNDUP
NATIONAL WEATHER SERVICE GOODLAND KS
800 AM MST SUN DEC 17 2017

...OFFICIAL OBSERVATIONS...

CITY           SKY/WX    TMP DP  RH WIND       PRES   REMARKS
GOODLAND KS    CLOUDY    33  31  92 N10       30.03R
HILL CITY KS   MOCLDY    32  29  88 NW10      30.04R
IMPERIAL NEB   CLOUDY    34  33  96 N6        30.04R
MCCOOK NEB     CLOUDY    36  31  82 N9        30.04S
AKRON CO       CLOUDY    29  27  92 CALM      30.02S FOG
BURLINGTON CO  CLOUDY    32  31  96 N7        30.03R
LIMON CO       CLOUDY    29  25  85 NW8       30.02R
$$

...UNOFFICIAL OBSERVATIONS...

CITY           SKY/WX    TMP DP  RH WIND       PRES   REMARKS
LENORA KS        N/A     26  32 100 N6          N/A
NORTON KS      CLEAR     28  25  86 NW8       30.01
SHARON SPRINGS   N/A     34  31  89 N7          N/A
TRENTON NEB      N/A     34  32  92 CALM        N/A
KIT CARSON CO    N/A     32  28  84 CALM        N/A
YUMA CO        CLOUDY    30  30 100 N6        30.03S FOG
$$




USA.gov is the U.S. government's official web portal to all federal, state and local government web resources and services.